This demonstration page uses our WeatherBlox Daily Observations layout. Learn more.

Left ArrowRight Arrow

39.92423, -83.80882

Hourly Observations for July 29, 2021

Temp ( °F °C ) Dew Point ( °F °C ) Humidity (%) Winds ( mph kmh ) Pressure ( in mb ) Visibility ( mi km ) Precip ( " mm )
12:56 am 00:56 Clear 70 21 N/A N/A N N/A 30.00 1016 10 16 N/A
1:56 am 01:56 Clear 70 21 N/A N/A SSW 5 7 30.00 1016 10 16 N/A
2:56 am 02:56 Clear 72 22 N/A N/A SSW 6 9 29.99 1016 10 16 N/A
3:56 am 03:56 Clear 70 21 N/A N/A SW 3 6 30.00 1016 7 11 N/A
4:56 am 04:56 Clear 70 21 N/A N/A W 5 7 30.01 1016 9 14 N/A
5:56 am 05:56 Clear 70 21 N/A N/A SSW 6 9 29.96 1015 7 11 N/A
6:56 am 06:56 Sunny with Mist and Fog 70 21 N/A N/A SW 5 7 29.97 1015 3 5 N/A
7:56 am 07:56 Hazy 70 21 N/A N/A SW 7 11 29.99 1016 5 8 N/A
8:56 am 08:56 Mostly Cloudy with Rain 72 22 N/A N/A SSW 6 9 29.96 1015 4 6 0.01 0.25
9:56 am 09:56 Mostly Cloudy with Haze 73 23 N/A N/A WNW 14 22 29.97 1015 5 8 0.03 0.76
10:02 am 10:02 Mostly Cloudy with Haze 73 23 N/A N/A WNW 13 20 29.95 1014 5 8 N/A
10:34 am 10:34 Mostly Cloudy with Haze 75 24 N/A N/A W 7 11 29.94 1014 5 8 N/A
10:56 am 10:56 Hazy 77 25 N/A N/A WSW 7 11 29.97 1015 5 8 N/A
11:19 am 11:19 Mostly Cloudy 79 26 79 26 100 100 WSW 12 19 29.93 1014 7 11 N/A
11:36 am 11:36 Partly Cloudy 79 26 79 26 100 100 WSW 10 17 29.93 1014 8 13 N/A
11:56 am 11:56 Partly Cloudy 80 26.7 80 26.7 100 100 WSW 10 17 29.96 1015 8 13 N/A
12:56 pm 12:56 Mostly Sunny 82 27.8 79 26.1 90 90 SW 15 24 29.94 1014 9 14 N/A
1:56 pm 13:56 Mostly Cloudy 85 29.4 79 26.1 82 82 W 15 24 29.91 1013 10 16 N/A
2:56 pm 14:56 Mostly Sunny 86 30 78 25.6 77 77 W 17 28 29.88 1012 10 16 N/A
3:56 pm 15:56 Mostly Cloudy 86 30 78 25.6 77 77 WSW 22 35 29.85 1011 10 16 N/A
4:25 pm 16:25 Mostly Cloudy with Nearby Thunderstorms 84 29 77 25 79 79 WSW 17 28 29.83 1010 10 16 N/A
4:56 pm 16:56 Cloudy with Nearby Thunderstorms 80 26.7 79 26.1 97 97 WNW 9 15 29.87 1012 10 16 0.06 1.52
5:30 pm 17:30 Cloudy with Strong Thunderstorms 79 26 79 26 100 100 NNW 29 46 29.87 1012 2 3 0.04 1.02
5:41 pm 17:41 Cloudy with Thunderstorms 75 24 N/A N/A WSW 9 15 29.85 1011 3 5 0.06 1.52
5:56 pm 17:56 Cloudy with Thunderstorms 75 24 N/A N/A W 5 7 29.88 1012 10 16 0.08 2.03
6:56 pm 18:56 Cloudy with Nearby Thunderstorms 75 24 N/A N/A VRB 3 6 29.88 1012 10 16 0.03 0.76
7:18 pm 19:18 Cloudy 77 25 N/A N/A N N/A 29.84 1011 10 16 0.01 0.25
7:56 pm 19:56 Partly Cloudy 79 26 N/A N/A SSW 3 6 29.88 1012 9 14 0.02 0.51
8:56 pm 20:56 Cloudy with Haze 77 25 N/A N/A N N/A 29.89 1012 4 6 0.01 0.25
9:56 pm 21:56 Mostly Clear 75 24 N/A N/A W 6 9 29.90 1013 8 13 0.01 0.25
10:16 pm 22:16 Mostly Cloudy 75 24 N/A N/A W 5 7 29.88 1012 7 11 N/A
10:27 pm 22:27 Mostly Cloudy 75 24 N/A N/A WNW 6 9 29.88 1012 8 13 0.01 0.25
10:35 pm 22:35 Mostly Cloudy 75 24 N/A N/A WNW 6 9 29.88 1012 8 13 0.01 0.25
10:46 pm 22:46 Partly Cloudy 75 24 N/A N/A WNW 5 7 29.88 1012 7 11 0.01 0.25
10:56 pm 22:56 Hazy 75 24 N/A N/A W 3 6 29.90 1013 6 10 0.01 0.25
11:56 pm 23:56 Partly Cloudy 73 23 N/A N/A WNW 3 6 29.91 1013 10 16 0.01 0.25

Powered by AerisWeather